This demonstration page uses our WeatherBlox Daily Observations layout. Learn more.

Left ArrowRight Arrow

40.92945, -100.16068

Hourly Observations for November 3, 2015

Temp ( °F °C ) Dew Point ( °F °C ) Humidity (%) Winds ( mph kmh ) Pressure ( in mb ) Visibility ( mi km ) Precip ( " mm )
12:15 am 00:15 Clear 54 12 47 8.1 77 77 SSE 9 15 29.77 1008 10 16 N/A
12:35 am 00:35 Clear 54 12 47 8.4 79 79 SSE 9 15 29.77 1008 10 16 N/A
12:55 am 00:55 Clear 54 12.2 47 8.3 77 77 SE 13 20 29.77 1008 10 16 N/A
1:15 am 01:15 Clear 53 11.9 47 8.2 78 78 SE 9 15 29.77 1008 10 16 N/A
1:35 am 01:35 Clear 51 10.4 45 7.2 81 81 E 6 9 29.80 1009 10 16 N/A
1:55 am 01:55 Clear 47 8.5 44 6.6 88 88 E 6 9 29.80 1009 10 16 N/A
2:15 am 02:15 Clear 49 9.7 46 7.9 89 89 SE 8 13 29.80 1009 10 16 N/A
2:35 am 02:35 Clear 51 10.8 47 8.5 86 86 SE 10 17 29.80 1009 10 16 N/A
2:55 am 02:55 Clear 51 10.8 47 8.5 86 86 SE 8 13 29.80 1009 10 16 N/A
3:15 am 03:15 Clear 46 7.7 43 6.1 90 90 E 6 9 29.77 1008 10 16 N/A
3:35 am 03:35 Clear 46 7.6 44 6.4 92 92 ESE 3 6 29.77 1008 10 16 N/A
3:55 am 03:55 Clear 50 9.8 48 8.7 93 93 SE 9 15 29.77 1008 10 16 N/A
4:15 am 04:15 Clear 49 9.5 47 8.1 91 91 SE 8 13 29.77 1008 10 16 N/A
4:35 am 04:35 Clear 49 9.2 46 8 92 92 SE 9 15 29.77 1008 10 16 N/A
4:55 am 04:55 Clear 48 9 46 7.8 92 92 SE 7 11 29.77 1008 10 16 N/A
5:15 am 05:15 Clear 47 8.5 45 7.3 92 92 SE 8 13 29.77 1008 10 16 N/A
5:35 am 05:35 Clear 47 8.3 45 7.3 93 93 SE 7 11 29.77 1008 7 11 N/A
5:55 am 05:55 Clear 47 8.2 45 7.3 94 94 SE 7 11 29.77 1008 7 11 N/A
6:15 am 06:15 Clear 47 8.5 46 7.6 94 94 SE 8 13 29.77 1008 7 11 N/A
6:35 am 06:35 Clear 47 8.5 46 7.7 95 95 SE 6 9 29.77 1008 7 11 N/A
6:55 am 06:55 Partly Cloudy with Mist and Fog 46 7.7 45 7 95 95 ESE 5 7 29.77 1008 5 8 N/A
7:15 am 07:15 Partly Cloudy with Mist and Fog 44 6.9 43 6.1 95 95 SE 6 9 29.80 1009 3 4 N/A
7:35 am 07:35 Partly Cloudy with Mist and Fog 45 7.3 44 6.6 95 95 SE 5 7 29.80 1009 3 5 N/A
7:55 am 07:55 Sunny with Mist and Fog 47 8.1 46 7.6 97 97 SSE 8 13 29.77 1008 4 6 N/A
8:15 am 08:15 Partly Cloudy 49 9.5 48 8.9 96 96 SSE 9 15 29.77 1008 7 11 N/A
8:35 am 08:35 Partly Cloudy 50 10.2 49 9.5 95 95 SSE 7 11 29.77 1008 7 11 N/A
8:55 am 08:55 Partly Cloudy 52 11 50 10.2 95 95 S 14 22 29.74 1007 10 16 N/A
9:15 am 09:15 Sunny 53 11.6 51 10.5 93 93 S 14 22 29.74 1007 10 16 N/A
9:35 am 09:35 Partly Cloudy 54 12.1 51 10.4 89 89 S 14 22 29.74 1007 10 16 N/A
9:55 am 09:55 Sunny 55 12.7 51 10.5 87 87 S 12 19 29.74 1007 10 16 N/A
10:15 am 10:15 Sunny 56 13.6 51 10.6 82 82 S 13 20 29.74 1007 10 16 N/A
10:35 am 10:35 Sunny 58 14.2 51 10.7 80 80 S 12 19 29.74 1007 10 16 N/A
10:55 am 10:55 Sunny 59 15 51 10.8 76 76 S 12 19 29.71 1006 10 16 N/A
11:15 am 11:15 Sunny 60 15.8 52 11 73 73 S 12 19 29.71 1006 10 16 N/A
11:35 am 11:35 Sunny 61 16.2 51 10.6 70 70 SSE 12 19 29.71 1006 10 16 N/A
11:55 am 11:55 Sunny 62 16.7 51 10.5 67 67 S 13 20 29.71 1006 10 16 N/A
12:15 pm 12:15 Sunny 63 17.4 51 10.8 65 65 SSW 14 22 29.71 1006 10 16 N/A
12:35 pm 12:35 Sunny 64 18 50 10.2 61 61 SSE 12 19 29.65 1004 10 16 N/A
12:55 pm 12:55 Sunny 66 18.9 49 9.7 55 55 S 12 19 29.65 1004 10 16 N/A
1:15 pm 13:15 Sunny 67 19.7 49 9.5 52 52 S 13 20 29.65 1004 10 16 N/A
1:35 pm 13:35 Sunny 69 20.6 49 9.6 49 49 S 10 17 29.62 1003 10 16 N/A
1:55 pm 13:55 Sunny 70 21.2 49 9.3 47 47 SSE 15 24 29.59 1002 10 16 N/A
2:15 pm 14:15 Sunny 71 21.7 48 8.9 44 44 SSE 12 19 29.59 1002 10 16 N/A
2:35 pm 14:35 Sunny 73 22.5 47 8.5 41 41 SSE 15 24 29.59 1002 10 16 N/A
2:55 pm 14:55 Sunny 73 23 47 8.1 39 39 SSE 17 28 29.59 1002 10 16 N/A
3:15 pm 15:15 Sunny 74 23.2 46 8 38 38 SSE 15 24 29.59 1002 10 16 N/A
3:35 pm 15:35 Sunny 74 23.2 46 8 38 38 SSE 13 20 29.59 1002 10 16 N/A
3:55 pm 15:55 Sunny 74 23.5 46 8 37 37 S 17 28 29.56 1001 10 16 N/A
4:15 pm 16:15 Sunny 74 23.2 48 8.9 40 40 S 16 26 29.59 1002 10 16 N/A
4:35 pm 16:35 Sunny 73 22.7 49 9.5 43 43 SSE 10 17 29.59 1002 10 16 N/A
4:55 pm 16:55 Sunny 71 21.6 50 9.9 47 47 SSE 8 13 29.59 1002 10 16 N/A
5:15 pm 17:15 Sunny 69 20.3 49 9.5 50 50 SSE 9 15 29.62 1003 10 16 N/A
5:35 pm 17:35 Clear 69 20.5 47 8.4 46 46 SSE 10 17 29.59 1002 10 16 N/A
5:55 pm 17:55 Clear 67 19.5 47 8.1 48 48 SSE 14 22 29.62 1003 10 16 N/A
6:15 pm 18:15 Clear 67 19.5 47 8.1 48 48 SSE 10 17 29.62 1003 10 16 N/A
6:35 pm 18:35 Clear 66 18.9 47 8.4 51 51 SSE 10 17 29.62 1003 10 16 N/A
6:55 pm 18:55 Clear 64 18 48 8.7 55 55 SSE 10 17 29.62 1003 10 16 N/A
7:15 pm 19:15 Clear 63 17 48 8.8 59 59 SSE 12 19 29.62 1003 10 16 N/A
7:35 pm 19:35 Clear 62 16.7 48 9 61 61 SSE 10 17 29.68 1005 10 16 N/A
7:55 pm 19:55 Clear 63 17.1 49 9.4 61 61 SSE 10 17 29.68 1005 10 16 N/A
8:15 pm 20:15 Clear 65 18.1 49 9.2 56 56 S 16 26 29.65 1004 10 16 N/A
8:35 pm 20:35 Clear 64 18 48 9 56 56 S 15 24 29.65 1004 10 16 N/A
8:55 pm 20:55 Clear 63 17.2 48 9 59 59 SSE 10 17 29.68 1005 10 16 N/A
9:15 pm 21:15 Clear 63 17.3 48 9 58 58 SSE 12 19 29.68 1005 10 16 N/A
9:35 pm 21:35 Clear 63 17 48 9 59 59 SSE 12 19 29.68 1005 10 16 N/A
9:55 pm 21:55 Clear 61 16.2 48 9 63 63 SSE 9 15 29.68 1005 10 16 N/A
10:15 pm 22:15 Clear 60 15.7 49 9.2 65 65 SSE 10 17 29.68 1005 10 16 N/A
10:35 pm 22:35 Clear 61 16 49 9.2 64 64 S 12 19 29.68 1005 10 16 N/A
10:55 pm 22:55 Clear 60 15.5 49 9.3 67 67 S 13 20 29.68 1005 10 16 N/A
11:15 pm 23:15 Clear 59 15.2 49 9.5 69 69 S 12 19 29.68 1005 10 16 N/A
11:35 pm 23:35 Clear 60 15.5 49 9.5 68 68 S 10 17 29.71 1006 10 16 N/A
11:55 pm 23:55 Clear 60 15.5 49 9.6 68 68 S 13 20 29.71 1006 10 16 N/A

Powered by AerisWeather